Orange, MA

4:01 AM EDT on October 21, 2017 (GMT -0400)
Orange Municipal

Weather History for KORE - February, 2014

Change the Weather History Date:

Wednesday, February 5, 2014

  Actual Average Record
Temperature  
Mean Temperature 26 °F -  
Max Temperature 27 °F 32 °F 48 °F (2005)
Min Temperature 24 °F 11 °F -2 °F (2009)
Degree Days  
Heating Degree Days 40    
Moisture  
Dew Point 21 °F    
Average Humidity 86    
Maximum Humidity 93    
Minimum Humidity 75    
Precipitation  
Precipitation 0.73 in - - ()
Sea Level Pressure  
Sea Level Pressure 29.89 in    
Wind  
Wind Speed 5 mph (North)    
Max Wind Speed 12 mph    
Max Gust Speed -    
Visibility 2 miles    
Events Fog , Snow    
Averages and records for this station are not official NWS values.
T = Trace of Precipitation, MM = Missing Value Source: NWS Daily Summary

Daily Weather History Graph

Daily Weather History Graph

Search for Another Location

Airport or City:

Trip Planner

Search our weather history database for the weather conditions in past years. The results will help you decide how hot, cold, wet, or windy it might be!

Date:

Astronomy

Feb. 05, 2014 Rise Set
Actual Time 6:58 AM EST 5:08 PM EST
Civil Twilight 6:29 AM EST 5:37 PM EST
Nautical Twilight 5:55 AM EST 6:11 PM EST
Astronomical Twilight 5:22 AM EST 6:44 PM EST
Moon 10:02 AM EST (2/5) No Moon Set
Length of Visible Light 11h 08m
Length of Day
10h 09m
Waxing Crescent, 39% of the Moon is Illuminated
Feb 5
Waxing Crescent
Feb 6
First Quarter
Feb 14
Full
Feb 22
Last Quarter
Mar 1
New

Hourly Weather History & Observations

Time (EST) Temp. Windchill Dew Point Humidity Pressure Visibility Wind Dir Wind Speed Gust Speed Precip Events Conditions
12:52 AM 25.0 °F 20.7 °F 21.9 °F 88% 30.28 in 9.0 mi South 3.5 mph - N/A   Clear
1:52 AM 25.0 °F - 21.9 °F 88% 30.26 in 8.0 mi Calm Calm - N/A   Clear
2:52 AM 25.0 °F - 23.0 °F 92% 30.27 in 8.0 mi Calm Calm - N/A   Overcast
3:52 AM 26.1 °F 19.4 °F 21.9 °F 84% 30.21 in 10.0 mi North 5.8 mph - N/A   Overcast
4:52 AM 27.0 °F - 19.9 °F 75% 30.19 in 9.0 mi Calm Calm - 0.00 in Snow Light Snow
5:03 AM 26.1 °F 20.5 °F 19.9 °F 78% 30.16 in 2.5 mi ESE 4.6 mph - 0.00 in Snow Light Snow
5:06 AM 26.1 °F 19.4 °F 19.9 °F 78% 30.16 in 1.2 mi Variable 5.8 mph - 0.00 in Snow Light Snow
5:09 AM 25.0 °F 17.1 °F 19.9 °F 81% 30.15 in 0.8 mi East 6.9 mph - 0.01 in Snow Light Snow
5:21 AM 24.1 °F 19.7 °F 21.0 °F 88% 30.15 in 0.5 mi East 3.5 mph - 0.02 in Fog , Snow Snow
5:31 AM 24.1 °F 18.2 °F 21.9 °F 91% 30.15 in 0.5 mi NE 4.6 mph - 0.04 in Fog , Snow Snow
5:52 AM 24.1 °F 18.2 °F 21.9 °F 91% 30.17 in 0.2 mi NNE 4.6 mph - 0.09 in Fog , Snow Snow
6:52 AM 24.1 °F 17.0 °F 21.9 °F 91% 30.15 in 0.2 mi North 5.8 mph - 0.11 in Fog , Snow Snow
7:36 AM 24.1 °F 18.2 °F 21.9 °F 91% 30.11 in 0.2 mi North 4.6 mph - 0.09 in Fog , Snow Heavy Snow
7:49 AM 24.8 °F 19.1 °F 21.2 °F 86% 30.10 in 0.2 mi NNE 4.6 mph - 0.12 in Fog , Snow Snow
7:52 AM 24.1 °F 17.0 °F 21.9 °F 91% 30.13 in 0.2 mi NE 5.8 mph - 0.12 in Fog , Snow Snow
8:42 AM 24.1 °F 18.2 °F 21.9 °F 91% 30.04 in 0.2 mi NNE 4.6 mph - 0.07 in Fog , Snow Snow
8:52 AM 24.1 °F 18.2 °F 21.0 °F 88% 30.05 in 0.2 mi North 4.6 mph - 0.08 in Fog , Snow Snow
9:52 AM 24.1 °F 18.2 °F 21.9 °F 91% 30.00 in 0.2 mi North 4.6 mph - 0.07 in Fog , Snow Snow
10:06 AM 25.0 °F 19.3 °F 21.9 °F 88% 29.93 in 0.2 mi NNE 4.6 mph - 0.02 in Fog , Snow Snow
10:32 AM 25.0 °F 19.3 °F 23.0 °F 92% 29.92 in 0.5 mi North 4.6 mph - 0.05 in Fog , Snow Snow
10:47 AM 24.8 °F 17.9 °F 23.0 °F 93% 29.91 in 1.0 mi NNW 5.8 mph - 0.06 in Snow Light Snow
10:52 AM 25.0 °F 17.1 °F 23.0 °F 92% 29.93 in 1.0 mi NNW 6.9 mph - 0.06 in Snow Light Snow
10:58 AM 26.1 °F 17.6 °F 21.9 °F 84% 29.91 in 1.5 mi NNW 8.1 mph - 0.00 in Snow Light Snow
11:08 AM 26.1 °F 18.4 °F 21.9 °F 84% 29.89 in 1.0 mi North 6.9 mph - 0.01 in Snow Light Snow
11:17 AM 26.1 °F 18.4 °F 23.0 °F 88% 29.87 in 0.5 mi NNE 6.9 mph - 0.02 in Fog , Snow Snow
11:35 AM 26.1 °F 17.6 °F 21.9 °F 84% 29.85 in 1.2 mi North 8.1 mph - 0.02 in Snow Light Snow
11:44 AM 26.1 °F 19.4 °F 21.9 °F 84% 29.81 in 1.5 mi NNE 5.8 mph - 0.02 in Snow Light Snow
11:52 AM 26.1 °F 18.4 °F 21.9 °F 84% 29.84 in 1.2 mi North 6.9 mph - 0.03 in Snow Light Snow
12:02 PM 25.0 °F 14.8 °F 21.9 °F 88% 29.80 in 0.8 mi North 10.4 mph - 0.00 in Snow Light Snow
12:11 PM 25.0 °F 15.5 °F 21.0 °F 85% 29.78 in 0.8 mi NNE 9.2 mph - 0.00 in Snow Light Snow
12:52 PM 25.0 °F 16.3 °F 21.9 °F 88% 29.74 in 0.5 mi NNE 8.1 mph - 0.02 in Fog , Snow Light Snow
1:01 PM 25.0 °F 17.1 °F 21.9 °F 88% 29.71 in 0.5 mi Variable 6.9 mph - 0.01 in Fog , Snow Snow
1:49 PM 24.8 °F 16.9 °F 21.2 °F 86% 29.68 in 0.5 mi North 6.9 mph - 0.05 in Fog , Snow Light Snow
1:52 PM 25.0 °F 15.5 °F 21.0 °F 85% 29.71 in 0.8 mi North 9.2 mph - 0.05 in Snow Light Snow
1:57 PM 25.0 °F 16.3 °F 21.0 °F 85% 29.68 in 1.0 mi North 8.1 mph - 0.00 in Snow Light Snow
2:10 PM 25.0 °F 18.1 °F 21.9 °F 88% 29.67 in 0.5 mi North 5.8 mph - 0.02 in Fog , Snow Light Snow
2:23 PM 25.0 °F 16.3 °F 21.9 °F 88% 29.68 in 0.5 mi NNW 8.1 mph - 0.03 in Fog , Snow Light Snow
2:39 PM 25.0 °F 17.1 °F 21.0 °F 85% 29.64 in 0.5 mi North 6.9 mph - 0.04 in Fog , Snow Light Snow
2:48 PM 24.8 °F 15.3 °F 21.2 °F 86% 29.67 in 1.2 mi NW 9.2 mph - 0.04 in Snow Light Snow
2:52 PM 24.1 °F 13.1 °F 21.0 °F 88% 29.71 in 1.0 mi NW 11.5 mph - 0.04 in Snow Light Snow
3:04 PM 24.1 °F 13.7 °F 21.0 °F 88% 29.70 in 0.5 mi NNW 10.4 mph - 0.01 in Fog , Snow Light Snow
3:18 PM 24.1 °F 13.7 °F 21.0 °F 88% 29.72 in 0.5 mi NNW 10.4 mph - 0.02 in Fog , Snow Light Snow
3:52 PM 24.1 °F 14.4 °F 21.0 °F 88% 29.72 in 0.2 mi North 9.2 mph - 0.03 in Fog , Snow Snow
4:15 PM 24.1 °F 15.2 °F 21.9 °F 91% 29.69 in 0.5 mi North 8.1 mph - 0.01 in Fog , Snow Light Snow
4:34 PM 24.1 °F 14.4 °F 21.0 °F 88% 29.69 in 1.0 mi North 9.2 mph - 0.01 in Snow Light Snow
4:42 PM 24.1 °F 14.4 °F 19.9 °F 84% 29.69 in 1.2 mi North 9.2 mph - 0.01 in Snow Light Snow
4:52 PM 24.1 °F 14.4 °F 19.9 °F 84% 29.71 in 1.5 mi North 9.2 mph - 0.01 in Snow Light Snow
5:13 PM 24.1 °F 14.4 °F 19.9 °F 84% 29.68 in 2.5 mi North 9.2 mph - 0.00 in Snow Light Snow
5:22 PM 24.1 °F 13.7 °F 19.9 °F 84% 29.68 in 4.0 mi NNE 10.4 mph - 0.00 in Snow Light Snow
5:52 PM 24.1 °F 14.4 °F 19.9 °F 84% 29.72 in 4.0 mi North 9.2 mph - 0.00 in Snow Light Snow
6:52 PM 24.1 °F 13.7 °F 18.0 °F 77% 29.73 in 7.0 mi North 10.4 mph - 0.00 in Snow Light Snow
7:08 PM 24.1 °F 13.7 °F 19.0 °F 81% 29.72 in 7.0 mi North 10.4 mph - 0.00 in   Overcast
7:52 PM 24.1 °F 17.0 °F 19.0 °F 81% 29.77 in 7.0 mi NNE 5.8 mph - 0.00 in   Overcast
8:34 PM 24.1 °F 17.0 °F 19.9 °F 84% 29.78 in 2.5 mi NNW 5.8 mph - 0.01 in Snow Light Snow
8:52 PM 24.1 °F 17.0 °F 19.9 °F 84% 29.81 in 1.8 mi North 5.8 mph - 0.02 in Snow Light Snow
9:21 PM 24.1 °F 15.2 °F 19.9 °F 84% 29.81 in 2.0 mi North 8.1 mph - 0.00 in Snow Light Snow
9:42 PM 24.1 °F 16.0 °F 19.9 °F 84% 29.82 in 3.0 mi North 6.9 mph - 0.00 in Snow Light Snow
9:52 PM 24.1 °F 17.0 °F 19.9 °F 84% 29.85 in 3.0 mi North 5.8 mph - 0.00 in Snow Light Snow
10:52 PM 24.1 °F 18.2 °F 19.9 °F 84% 29.90 in 3.0 mi NNW 4.6 mph - 0.00 in Snow Light Snow
11:52 PM 24.1 °F 14.4 °F 19.0 °F 81% 29.95 in 10.0 mi North 9.2 mph - 0.00 in   Overcast